| time (UTC) | temp F | wind direction | speed MPH | gust MPH | rain 1hr in | rain 24hr in | rain mn in | humidity % | barometer mb |
| 20260831131557 | 65 | 159 | 0.0 | 1.0 | 0.00 | 0.00 | 0.00 | 91 | 1009.6 |
| 20260831131555 | 65 | 0 | 0.0 | 1.0 | 0.00 | 0.00 | 0.00 | 91 | 1013.0 |
| 20260831130101 | 66 | 0 | 0.0 | 1.0 | 0.00 | 0.00 | 0.00 | 90 | 1013.0 |
| 20260831130056 | 66 | 159 | 0.0 | 1.0 | 0.00 | 0.00 | 0.00 | 91 | 1009.6 |
| 20260831124559 | 66 | 0 | 0.0 | 0.0 | 0.00 | 0.00 | 0.00 | 90 | 1012.9 |
| 20260831124556 | 66 | 159 | 0.0 | 0.0 | 0.00 | 0.00 | 0.00 | 91 | 1009.5 |
| 20260831123057 | 66 | 0 | 0.0 | 2.0 | 0.00 | 0.00 | 0.00 | 90 | 1013.0 |
| 20260831123055 | 66 | 159 | 0.0 | 2.0 | 0.00 | 0.00 | 0.00 | 91 | 1009.5 |
| 20260831121609 | 66 | 159 | 0.0 | 5.0 | 0.00 | 0.00 | 0.00 | 90 | 1013.0 |
| 20260831121555 | 66 | 159 | 0.0 | 4.0 | 0.00 | 0.00 | 0.00 | 91 | 1009.5 |
| 20260831120108 | 66 | 0 | 0.0 | 4.0 | 0.00 | 0.00 | 0.00 | 90 | 1013.4 |
| 20260831120053 | 66 | 159 | 0.0 | 3.0 | 0.00 | 0.00 | 0.00 | 91 | 1009.6 |
| 20260831114600 | 66 | 159 | 0.0 | 0.0 | 0.00 | 0.00 | 0.00 | 90 | 1013.7 |
| 20260831114553 | 66 | 159 | 0.0 | 1.0 | 0.00 | 0.00 | 0.00 | 90 | 1009.6 |
| 20260831113106 | 66 | 0 | 0.0 | 1.0 | 0.00 | 0.00 | 0.00 | 90 | 1014.0 |
| 20260831113059 | 66 | 159 | 0.0 | 1.0 | 0.00 | 0.00 | 0.00 | 90 | 1009.6 |
| 20260831111610 | 66 | 0 | 0.0 | 2.0 | 0.00 | 0.00 | 0.00 | 89 | 1014.1 |
| 20260831111555 | 66 | 159 | 0.0 | 2.0 | 0.00 | 0.00 | 0.00 | 90 | 1009.6 |
| 20260831110104 | 66 | 0 | 0.0 | 2.0 | 0.00 | 0.00 | 0.00 | 89 | 1014.1 |
| 20260831110051 | 66 | 159 | 0.0 | 2.0 | 0.00 | 0.00 | 0.00 | 89 | 1009.7 |
| 20260831104603 | 66 | 0 | 0.0 | 2.0 | 0.00 | 0.00 | 0.00 | 88 | 1014.3 |
| 20260831104550 | 66 | 159 | 0.0 | 2.0 | 0.00 | 0.00 | 0.00 | 89 | 1009.7 |
| 20260831103107 | 66 | 0 | 0.0 | 4.0 | 0.00 | 0.00 | 0.00 | 87 | 1014.2 |
| 20260831103101 | 66 | 159 | 0.0 | 3.0 | 0.00 | 0.00 | 0.00 | 88 | 1009.6 |
| 20260831101557 | 66 | 0 | 0.0 | 1.0 | 0.00 | 0.00 | 0.00 | 86 | 1014.1 |
| 20260831101555 | 66 | 159 | 0.0 | 1.0 | 0.00 | 0.00 | 0.00 | 87 | 1009.5 |
| 20260831100108 | 66 | 0 | 0.0 | 0.0 | 0.00 | 0.00 | 0.00 | 85 | 1014.2 |
| 20260831100044 | 66 | 159 | 0.0 | 0.0 | 0.00 | 0.00 | 0.00 | 86 | 1009.6 |
| 20260831094604 | 66 | 0 | 0.0 | 0.0 | 0.00 | 0.00 | 0.00 | 85 | 1014.1 |
| 20260831094543 | 66 | 159 | 0.0 | 0.0 | 0.00 | 0.00 | 0.00 | 86 | 1009.5 |
| 20260831093109 | 67 | 0 | 0.0 | 0.0 | 0.00 | 0.00 | 0.00 | 85 | 1014.2 |
| 20260831093047 | 67 | 159 | 0.0 | 0.0 | 0.00 | 0.00 | 0.00 | 85 | 1009.4 |
| 20260831091605 | 67 | 0 | 0.0 | 0.0 | 0.00 | 0.00 | 0.00 | 84 | 1014.0 |
| 20260831091542 | 67 | 159 | 0.0 | 0.0 | 0.00 | 0.00 | 0.00 | 84 | 1009.2 |
| 20260831090058 | 67 | 0 | 0.0 | 0.0 | 0.00 | 0.00 | 0.00 | 83 | 1014.0 |
| 20260831090050 | 67 | 159 | 0.0 | 0.0 | 0.00 | 0.00 | 0.00 | 84 | 1009.2 |
| 20260831084609 | 67 | 0 | 0.0 | 0.0 | 0.00 | 0.00 | 0.00 | 83 | 1014.0 |
| 20260831084544 | 67 | 159 | 0.0 | 0.0 | 0.00 | 0.00 | 0.00 | 84 | 1009.3 |
| 20260831083100 | 68 | 0 | 0.0 | 0.0 | 0.00 | 0.00 | 0.00 | 83 | 1014.0 |
| 20260831083037 | 68 | 159 | 0.0 | 0.0 | 0.00 | 0.00 | 0.00 | 84 | 1009.5 |
| 20260831081605 | 68 | 0 | 0.0 | 0.0 | 0.00 | 0.00 | 0.00 | 83 | 1014.1 |
| 20260831081536 | 68 | 159 | 0.0 | 0.0 | 0.00 | 0.00 | 0.00 | 84 | 1009.5 |
| 20260831080135 | 68 | 0 | 0.0 | 1.0 | 0.00 | 0.00 | 0.00 | 83 | 1014.3 |
| 20260831080051 | 68 | 159 | 0.0 | 1.0 | 0.00 | 0.00 | 0.00 | 83 | 1009.6 |
| 20260831074601 | 68 | 0 | 0.0 | 1.0 | 0.00 | 0.00 | 0.00 | 82 | 1014.3 |
| 20260831074532 | 68 | 159 | 0.0 | 1.0 | 0.00 | 0.00 | 0.00 | 83 | 1009.5 |
| 20260831073113 | 68 | 0 | 0.0 | 2.0 | 0.00 | 0.00 | 0.00 | 82 | 1014.3 |
| 20260831073033 | 68 | 159 | 0.0 | 2.0 | 0.00 | 0.00 | 0.00 | 83 | 1009.5 |
| 20260831071602 | 69 | 0 | 0.0 | 0.0 | 0.00 | 0.00 | 0.00 | 80 | 1014.2 |
| 20260831071528 | 69 | 159 | 0.0 | 0.0 | 0.00 | 0.00 | 0.00 | 81 | 1009.5 |
| 20260831070100 | 69 | 0 | 0.0 | 2.0 | 0.00 | 0.00 | 0.00 | 80 | 1014.2 |
| 20260831070027 | 69 | 159 | 0.0 | 1.0 | 0.00 | 0.00 | 0.00 | 80 | 1009.4 |
| 20260831064608 | 69 | 0 | 0.0 | 1.0 | 0.00 | 0.00 | 0.00 | 79 | 1014.3 |
| 20260831064527 | 69 | 159 | 0.0 | 1.0 | 0.00 | 0.00 | 0.00 | 79 | 1009.4 |
| 20260831063101 | 69 | 0 | 0.0 | 2.0 | 0.00 | 0.00 | 0.00 | 77 | 1014.2 |
| 20260831063025 | 69 | 159 | 0.0 | 2.0 | 0.00 | 0.00 | 0.00 | 77 | 1009.4 |
| 20260831061647 | 70 | 0 | 0.0 | 2.0 | 0.00 | 0.00 | 0.00 | 76 | 1014.1 |
| 20260831061525 | 70 | 159 | 0.0 | 2.0 | 0.00 | 0.00 | 0.00 | 77 | 1009.3 |
| 20260831060100 | 70 | 0 | 0.0 | 2.0 | 0.00 | 0.00 | 0.00 | 75 | 1014.0 |
| 20260831060025 | 70 | 159 | 0.0 | 1.0 | 0.00 | 0.00 | 0.00 | 75 | 1009.3 |
| 20260831054604 | 70 | 0 | 0.0 | 1.0 | 0.00 | 0.00 | 0.00 | 76 | 1014.0 |
| 20260831054527 | 70 | 159 | 0.0 | 1.0 | 0.00 | 0.00 | 0.00 | 76 | 1009.3 |
| 20260831053102 | 71 | 0 | 0.0 | 4.0 | 0.00 | 0.00 | 0.00 | 76 | 1014.0 |
| 20260831053025 | 71 | 159 | 0.0 | 3.0 | 0.00 | 0.00 | 0.00 | 77 | 1009.2 |
| 20260831051558 | 71 | 0 | 0.0 | 3.0 | 0.00 | 0.00 | 0.00 | 75 | 1014.0 |
| 20260831051530 | 71 | 159 | 0.0 | 2.0 | 0.00 | 0.00 | 0.00 | 75 | 1009.2 |
| 20260831050101 | 71 | 0 | 0.0 | 4.0 | 0.00 | 0.00 | 0.00 | 74 | 1014.1 |
| 20260831050022 | 71 | 159 | 0.0 | 3.0 | 0.00 | 0.00 | 0.00 | 75 | 1009.1 |
| 20260831044606 | 72 | 159 | 0.0 | 4.0 | 0.00 | 0.00 | 0.00 | 73 | 1014.0 |
| 20260831044523 | 72 | 159 | 0.0 | 3.0 | 0.00 | 0.00 | 0.00 | 73 | 1008.9 |
| 20260831043059 | 73 | 159 | 0.0 | 4.0 | 0.00 | 0.00 | 0.00 | 72 | 1014.0 |
| 20260831043021 | 73 | 159 | 0.0 | 3.0 | 0.00 | 0.00 | 0.00 | 72 | 1008.9 |
| 20260831041608 | 73 | 159 | 0.0 | 5.0 | 0.00 | 0.00 | 0.00 | 70 | 1013.9 |
| 20260831041522 | 73 | 159 | 0.0 | 4.0 | 0.00 | 0.00 | 0.00 | 70 | 1008.8 |
| 20260831040111 | 74 | 159 | 0.0 | 4.0 | 0.00 | 0.00 | 0.00 | 68 | 1013.8 |
| 20260831040025 | 74 | 159 | 0.0 | 2.0 | 0.00 | 0.00 | 0.00 | 68 | 1008.7 |
| 20260831034604 | 75 | 0 | 0.0 | 5.0 | 0.00 | 0.00 | 0.00 | 67 | 1013.4 |
| 20260831034521 | 75 | 159 | 0.0 | 4.0 | 0.00 | 0.00 | 0.00 | 67 | 1008.3 |
| 20260831033059 | 75 | 0 | 0.0 | 5.0 | 0.00 | 0.00 | 0.00 | 66 | 1013.4 |
| 20260831033020 | 75 | 159 | 0.0 | 5.0 | 0.00 | 0.00 | 0.00 | 66 | 1008.2 |
| 20260831031555 | 76 | 206 | 0.0 | 6.0 | 0.00 | 0.00 | 0.00 | 63 | 1013.2 |
| 20260831031524 | 76 | 206 | 0.0 | 6.0 | 0.00 | 0.00 | 0.00 | 64 | 1008.1 |
| 20260831030019 | 78 | 221 | 0.0 | 3.0 | 0.00 | 0.00 | 0.00 | 61 | 1007.7 |
| 20260831024606 | 79 | 227 | 0.0 | 5.0 | 0.00 | 0.00 | 0.00 | 58 | 1012.7 |
| 20260831024519 | 79 | 227 | 0.0 | 5.0 | 0.00 | 0.00 | 0.00 | 59 | 1007.6 |
| 20260831023103 | 80 | 0 | 0.0 | 3.0 | 0.00 | 0.00 | 0.00 | 54 | 1012.5 |
| 20260831023017 | 80 | 182 | 0.0 | 3.0 | 0.00 | 0.00 | 0.00 | 54 | 1007.3 |
| 20260831021601 | 81 | 0 | 0.0 | 6.0 | 0.00 | 0.00 | 0.00 | 51 | 1012.4 |
| 20260831021517 | 81 | 163 | 0.0 | 5.0 | 0.00 | 0.00 | 0.00 | 52 | 1007.1 |
| 20260831020104 | 82 | 180 | 2.0 | 7.0 | 0.00 | 0.00 | 0.00 | 48 | 1012.1 |
| 20260831020017 | 82 | 220 | 2.0 | 7.0 | 0.00 | 0.00 | 0.00 | 49 | 1007.0 |
| 20260831014605 | 83 | 161 | 3.0 | 8.0 | 0.00 | 0.00 | 0.00 | 45 | 1012.1 |
| 20260831014517 | 83 | 160 | 4.0 | 8.0 | 0.00 | 0.00 | 0.00 | 45 | 1007.1 |
| 20260831013105 | 84 | 209 | 1.0 | 8.0 | 0.00 | 0.00 | 0.00 | 42 | 1012.2 |
| 20260831013016 | 84 | 104 | 2.0 | 8.0 | 0.00 | 0.00 | 0.00 | 42 | 1007.2 |
| 20260831011600 | 86 | 217 | 0.0 | 5.0 | 0.00 | 0.00 | 0.00 | 40 | 1012.3 |
| 20260831011515 | 86 | 217 | 0.0 | 3.0 | 0.00 | 0.00 | 0.00 | 41 | 1007.1 |
| 20260831010120 | 86 | 142 | 1.0 | 9.0 | 0.00 | 0.00 | 0.00 | 38 | 1012.1 |
| 20260831010021 | 86 | 189 | 1.0 | 5.0 | 0.00 | 0.00 | 0.00 | 38 | 1007.1 |
| 20260831004606 | 87 | 186 | 2.0 | 10.0 | 0.00 | 0.00 | 0.00 | 36 | 1012.0 |
| 20260831004515 | 87 | 196 | 1.0 | 9.0 | 0.00 | 0.00 | 0.00 | 36 | 1007.1 |
| 20260831003108 | 88 | 228 | 2.0 | 9.0 | 0.00 | 0.00 | 0.00 | 36 | 1011.9 |
| 20260831003013 | 88 | 139 | 2.0 | 8.0 | 0.00 | 0.00 | 0.00 | 36 | 1007.1 |
| 20260831001558 | 88 | 215 | 1.0 | 8.0 | 0.00 | 0.00 | 0.00 | 35 | 1011.9 |
| 20260831001513 | 88 | 214 | 1.0 | 8.0 | 0.00 | 0.00 | 0.00 | 35 | 1007.0 |
| 20260831000121 | 89 | 216 | 3.0 | 11.0 | 0.00 | 0.00 | 0.00 | 35 | 1011.7 |
| 20260831000021 | 89 | 212 | 4.0 | 10.0 | 0.00 | 0.00 | 0.00 | 34 | 1006.9 |
| 20260830234610 | 90 | 181 | 3.0 | 10.0 | 0.00 | 0.00 | 0.00 | 33 | 1011.8 |
| 20260830234522 | 90 | 214 | 3.0 | 10.0 | 0.00 | 0.00 | 0.00 | 33 | 1007.0 |
| 20260830233104 | 91 | 165 | 2.0 | 13.0 | 0.00 | 0.00 | 0.00 | 33 | 1011.8 |
| 20260830233011 | 91 | 164 | 2.0 | 6.0 | 0.00 | 0.00 | 0.00 | 34 | 1006.9 |
| 20260830231558 | 92 | 154 | 3.0 | 10.0 | 0.00 | 0.00 | 0.00 | 33 | 1011.5 |
| 20260830231511 | 92 | 135 | 2.0 | 10.0 | 0.00 | 0.00 | 0.00 | 33 | 1006.8 |
| 20260830230106 | 93 | 132 | 2.0 | 9.0 | 0.00 | 0.00 | 0.00 | 32 | 1011.6 |
| 20260830230018 | 93 | 207 | 2.0 | 9.0 | 0.00 | 0.00 | 0.00 | 33 | 1006.9 |
| 20260830224559 | 94 | 215 | 1.0 | 11.0 | 0.00 | 0.00 | 0.00 | 32 | 1011.8 |
| 20260830224511 | 94 | 213 | 1.0 | 10.0 | 0.00 | 0.00 | 0.00 | 33 | 1007.0 |
| 20260830223105 | 95 | 176 | 1.0 | 8.0 | 0.00 | 0.00 | 0.00 | 32 | 1012.0 |
| 20260830223009 | 95 | 219 | 1.0 | 8.0 | 0.00 | 0.00 | 0.00 | 33 | 1007.1 |
| 20260830221555 | 95 | 144 | 2.0 | 11.0 | 0.00 | 0.00 | 0.00 | 31 | 1012.1 |
| 20260830221508 | 95 | 219 | 2.0 | 10.0 | 0.00 | 0.00 | 0.00 | 31 | 1007.3 |
| 20260830220103 | 95 | 145 | 3.0 | 9.0 | 0.00 | 0.00 | 0.00 | 31 | 1012.2 |
| 20260830220008 | 95 | 225 | 2.0 | 8.0 | 0.00 | 0.00 | 0.00 | 32 | 1007.3 |
| 20260830214605 | 95 | 220 | 1.0 | 9.0 | 0.00 | 0.00 | 0.00 | 33 | 1012.3 |
| 20260830214506 | 95 | 220 | 0.0 | 7.0 | 0.00 | 0.00 | 0.00 | 33 | 1007.5 |
| 20260830213101 | 95 | 235 | 2.0 | 9.0 | 0.00 | 0.00 | 0.00 | 30 | 1012.7 |
| 20260830213013 | 95 | 233 | 2.0 | 9.0 | 0.00 | 0.00 | 0.00 | 31 | 1007.7 |
| 20260830211600 | 95 | 242 | 2.0 | 8.0 | 0.00 | 0.00 | 0.00 | 31 | 1012.9 |
| 20260830211505 | 95 | 216 | 2.0 | 8.0 | 0.00 | 0.00 | 0.00 | 32 | 1007.8 |
| 20260830210516 | 95 | 209 | 3.0 | 10.0 | 0.00 | 0.00 | 0.00 | 32 | 1012.9 |
| 20260830210004 | 95 | 195 | 2.0 | 9.0 | 0.00 | 0.00 | 0.00 | 33 | 1008.0 |
| 20260830204555 | 95 | 180 | 3.0 | 11.0 | 0.00 | 0.00 | 0.00 | 32 | 1013.1 |
| 20260830204503 | 95 | 185 | 2.0 | 9.0 | 0.00 | 0.00 | 0.00 | 34 | 1008.1 |
| 20260830203103 | 95 | 213 | 2.0 | 8.0 | 0.00 | 0.00 | 0.00 | 33 | 1013.1 |
| 20260830203002 | 95 | 151 | 2.0 | 8.0 | 0.00 | 0.00 | 0.00 | 33 | 1008.3 |
| 20260830201622 | 94 | 215 | 1.0 | 7.0 | 0.00 | 0.00 | 0.00 | 35 | 1008.3 |
| 20260830201602 | 94 | 215 | 1.0 | 7.0 | 0.00 | 0.00 | 0.00 | 34 | 1013.1 |
| 20260830200109 | 94 | 132 | 2.0 | 12.0 | 0.00 | 0.00 | 0.00 | 33 | 1008.4 |
| 20260830194610 | 94 | 139 | 4.0 | 8.0 | 0.00 | 0.00 | 0.00 | 33 | 1008.5 |
| 20260830194605 | 94 | 142 | 3.0 | 10.0 | 0.00 | 0.00 | 0.00 | 33 | 1013.2 |
| 20260830193108 | 94 | 202 | 2.0 | 8.0 | 0.00 | 0.00 | 0.00 | 34 | 1008.6 |
| 20260830193101 | 94 | 202 | 2.0 | 8.0 | 0.00 | 0.00 | 0.00 | 34 | 1013.5 |
| 20260830191602 | 94 | 213 | 0.0 | 6.0 | 0.00 | 0.00 | 0.00 | 38 | 1008.6 |
| 20260830191558 | 94 | 0 | 1.0 | 6.0 | 0.00 | 0.00 | 0.00 | 38 | 1013.4 |
| 20260830190058 | 94 | 217 | 2.0 | 8.0 | 0.00 | 0.00 | 0.00 | 36 | 1013.5 |
| 20260830190053 | 94 | 195 | 1.0 | 7.0 | 0.00 | 0.00 | 0.00 | 37 | 1008.8 |
| 20260830184605 | 94 | 0 | 0.0 | 4.0 | 0.00 | 0.00 | 0.00 | 39 | 1013.5 |
| 20260830184550 | 94 | 175 | 0.0 | 4.0 | 0.00 | 0.00 | 0.00 | 39 | 1009.0 |
| 20260830183101 | 93 | 172 | 0.0 | 5.0 | 0.00 | 0.00 | 0.00 | 38 | 1013.7 |
| 20260830183045 | 93 | 172 | 1.0 | 4.0 | 0.00 | 0.00 | 0.00 | 38 | 1009.1 |
| 20260830181601 | 93 | 132 | 1.0 | 8.0 | 0.00 | 0.00 | 0.00 | 36 | 1013.7 |
| 20260830181543 | 93 | 132 | 1.0 | 7.0 | 0.00 | 0.00 | 0.00 | 36 | 1009.1 |
| 20260830180055 | 92 | 0 | 0.0 | 6.0 | 0.00 | 0.00 | 0.00 | 37 | 1013.7 |
| 20260830180050 | 92 | 167 | 0.0 | 5.0 | 0.00 | 0.00 | 0.00 | 38 | 1009.0 |
| 20260830174637 | 91 | 161 | 1.0 | 5.0 | 0.00 | 0.00 | 0.00 | 35 | 1013.7 |
| 20260830174536 | 91 | 161 | 1.0 | 4.0 | 0.00 | 0.00 | 0.00 | 36 | 1009.0 |
| 20260830173103 | 91 | 149 | 0.0 | 2.0 | 0.00 | 0.00 | 0.00 | 40 | 1013.7 |
| 20260830173031 | 91 | 149 | 0.0 | 3.0 | 0.00 | 0.00 | 0.00 | 40 | 1008.8 |
| 20260830171609 | 90 | 149 | 0.0 | 3.0 | 0.00 | 0.00 | 0.00 | 40 | 1013.7 |
| 20260830171529 | 90 | 149 | 0.0 | 3.0 | 0.00 | 0.00 | 0.00 | 43 | 1008.9 |
| 20260830170032 | 88 | 149 | 0.0 | 1.0 | 0.00 | 0.00 | 0.00 | 45 | 1009.0 |
| 20260830164559 | 86 | 0 | 0.0 | 1.0 | 0.00 | 0.00 | 0.00 | 49 | 1013.9 |
| 20260830164543 | 86 | 149 | 0.0 | 1.0 | 0.00 | 0.00 | 0.00 | 50 | 1009.1 |
| 20260830163103 | 83 | 0 | 0.0 | 0.0 | 0.00 | 0.00 | 0.00 | 55 | 1013.7 |
| 20260830163016 | 83 | 149 | 0.0 | 0.0 | 0.00 | 0.00 | 0.00 | 55 | 1009.0 |
| 20260830161612 | 81 | 0 | 0.0 | 0.0 | 0.00 | 0.00 | 0.00 | 60 | 1013.8 |
| 20260830161511 | 81 | 149 | 0.0 | 0.0 | 0.00 | 0.00 | 0.00 | 60 | 1009.0 |
| 20260830160007 | 78 | 149 | 0.0 | 2.0 | 0.00 | 0.00 | 0.00 | 64 | 1009.1 |
| 20260830154556 | 75 | 0 | 0.0 | 0.0 | 0.00 | 0.00 | 0.00 | 73 | 1013.7 |
| 20260830154504 | 75 | 149 | 0.0 | 0.0 | 0.00 | 0.00 | 0.00 | 73 | 1009.1 |
| 20260830153102 | 73 | 0 | 0.0 | 1.0 | 0.00 | 0.00 | 0.00 | 77 | 1013.8 |
| 20260830153008 | 73 | 149 | 0.0 | 1.0 | 0.00 | 0.00 | 0.00 | 78 | 1009.1 |
| 20260830151602 | 71 | 149 | 0.0 | 0.0 | 0.00 | 0.00 | 0.00 | 81 | 1009.1 |
| 20260830150101 | 69 | 149 | 0.0 | 0.0 | 0.00 | 0.00 | 0.00 | 82 | 1009.2 |
| 20260830144600 | 68 | 0 | 0.0 | 0.0 | 0.00 | 0.00 | 0.00 | 82 | 1013.8 |
| 20260830144558 | 68 | 149 | 0.0 | 0.0 | 0.00 | 0.00 | 0.00 | 82 | 1009.1 |
| 20260830143103 | 68 | 0 | 0.0 | 0.0 | 0.00 | 0.00 | 0.00 | 81 | 1013.9 |
| 20260830143055 | 68 | 149 | 0.0 | 0.0 | 0.00 | 0.00 | 0.00 | 81 | 1009.1 |
| 20260830141559 | 67 | 0 | 0.0 | 0.0 | 0.00 | 0.00 | 0.00 | 79 | 1014.0 |
| 20260830141553 | 67 | 149 | 0.0 | 0.0 | 0.00 | 0.00 | 0.00 | 80 | 1009.1 |
| 20260830140115 | 68 | 0 | 0.0 | 0.0 | 0.00 | 0.00 | 0.00 | 78 | 1014.1 |
| 20260830140056 | 68 | 149 | 0.0 | 0.0 | 0.00 | 0.00 | 0.00 | 79 | 1009.1 |
| 20260830134557 | 68 | 0 | 0.0 | 0.0 | 0.00 | 0.00 | 0.00 | 78 | 1014.0 |
| 20260830134551 | 68 | 149 | 0.0 | 0.0 | 0.00 | 0.00 | 0.00 | 79 | 1009.0 |
| 20260830133101 | 68 | 0 | 0.0 | 0.0 | 0.00 | 0.00 | 0.00 | 79 | 1013.9 |
| 20260830133046 | 68 | 149 | 0.0 | 0.0 | 0.00 | 0.00 | 0.00 | 79 | 1008.6 |